This is the latest recevied weather packets stored in our database for station/object KD8TSA. If no packets are shown the sender has not sent any weather packets the latest 10 day(s).
| Time | Temp. | Humidity | Pressure | Rain* | Wind** | Luminosity | Snow |
|---|---|---|---|---|---|---|---|
| 1778293206 | 15° C | 68% | 1009.5 hPa | 0 mm | - | 0 W/m² | - |
| 1778292903 | 15° C | 67% | 1009.4 hPa | 0 mm | - | 0 W/m² | - |
| 1778292600 | 15.56° C | 68% | 1009.6 hPa | 0 mm | - | 0 W/m² | - |
| 1778292298 | 15.56° C | 68% | 1009.2 hPa | 0 mm | - | 0 W/m² | - |
| 1778291994 | 15° C | 68% | 1009.6 hPa | 0 mm | - | 0 W/m² | - |
| 1778291694 | 15° C | 68% | 1009.5 hPa | 0 mm | - | 0 W/m² | - |
| 1778291390 | 15° C | 69% | 1009.2 hPa | 0 mm | - | 0 W/m² | - |
| 1778291087 | 15° C | 68% | 1009.4 hPa | 0 mm | - | 0 W/m² | - |
| 1778290783 | 15° C | 69% | 1009.4 hPa | 0 mm | - | 0 W/m² | - |
| 1778290481 | 15.56° C | 69% | 1009.2 hPa | 0 mm | - | 0 W/m² | - |
| 1778290176 | 15.56° C | 68% | 1009.3 hPa | 0 mm | - | 0 W/m² | - |
| 1778289873 | 15.56° C | 68% | 1009.1 hPa | 0 mm | - | 0 W/m² | - |
| 1778289570 | 15.56° C | 68% | 1009 hPa | 0 mm | - | 0 W/m² | - |
| 1778289267 | 15.56° C | 67% | 1008.9 hPa | 0 mm | - | 0 W/m² | - |
| 1778288965 | 15.56° C | 66% | 1008.9 hPa | 0 mm | - | 0 W/m² | - |
| 1778288662 | 15.56° C | 66% | 1008.9 hPa | 0 mm | - | 0 W/m² | - |
| 1778288359 | 16.11° C | 65% | 1009.1 hPa | 0 mm | - | 0 W/m² | - |
| 1778288058 | 16.11° C | 65% | 1009.1 hPa | 0 mm | - | 0 W/m² | - |
| 1778287757 | 16.67° C | 64% | 1009.2 hPa | 0 mm | - | 0 W/m² | - |
| 1778287454 | 16.67° C | 63% | 1009.1 hPa | 0 mm | - | 0 W/m² | - |
| 1778287152 | 16.67° C | 61% | 1009.3 hPa | 0 mm | - | 0 W/m² | - |
| 1778286849 | 16.67° C | 60% | 1009.3 hPa | 0 mm | - | 0 W/m² | - |
| 1778286546 | 17.22° C | 61% | 1009.5 hPa | 0 mm | - | 0 W/m² | - |
| 1778286244 | 17.22° C | 59% | 1009.3 hPa | 0 mm | - | 0 W/m² | - |
| 1778285941 | 16.67° C | 60% | 1009.6 hPa | 0 mm | - | 0 W/m² | - |
* Rain latest hour (hover to see other rain measurements)
** Current wind speed in m/s (hover to see current wind gust speed)